Location: B?dimalle
(17.1788°N, 80.5377°E)
Time: 15:41:18
(UTC+00:00)

S-56A Canister/Altair - Visible Passes

Search period start: 10 February 2026 00:00
Search period end: 20 February 2026 00:00
Orbit: 632 x 2485 km, 38.9° (Epoch: 10 February)

Date Brightness Start Highest point End Pass type
(mag) Time Alt. Az. Time Alt. Az. Time Alt. Az.
10 Feb 11.2 20:59:59 14° NNE 20:59:59 14° NNE 21:01:40 10° NE visible
10 Feb 10.6 22:57:13 19° NNW 23:02:06 25° NNE 23:12:41 10° ENE visible
11 Feb 10.6 22:24:08 22° N 22:26:12 23° N 22:35:46 10° ENE visible
12 Feb 10.7 00:23:16 10° NW 00:34:42 43° NNE 00:48:33 10° E visible
12 Feb 10.7 21:51:04 21° NNE 21:51:04 21° NNE 21:58:52 10° NE visible
12 Feb 10.6 23:48:18 10° NW 23:58:46 38° NNE 00:11:56 10° E visible
13 Feb 11.0 21:18:01 17° NNE 21:18:01 17° NNE 21:22:03 10° NE visible
13 Feb 10.6 23:15:15 16° NNW 23:22:53 33° NNE 23:35:10 10° E visible
14 Feb 11.3 20:44:59 11° NE 20:44:59 11° NE 20:45:22 10° NE visible
14 Feb 10.4 22:42:14 22° NNW 22:47:05 29° NNE 22:58:17 10° ENE visible
15 Feb 10.2 00:42:12 10° NW 00:54:22 67° NE 01:09:24 10° ESE visible
15 Feb 10.5 22:09:15 24° N 22:11:21 26° NNE 22:21:18 10° ENE visible
16 Feb 10.2 00:07:10 10° NW 00:18:32 59° NE 00:33:10 10° ESE visible
16 Feb 10.7 21:36:19 22° NNE 21:36:19 22° NNE 21:44:17 10° ENE visible
16 Feb 10.2 23:33:34 15° NW 23:42:47 52° NNE 23:56:48 10° ESE visible
17 Feb 9.7 14:39:58 10° S 14:40:12 11° S 14:40:12 11° S visible
17 Feb 11.0 21:03:25 16° NE 21:03:25 16° NE 21:07:14 10° ENE visible
17 Feb 10.2 23:00:40 24° NNW 23:07:06 45° NNE 23:20:16 10° E visible
18 Feb 9.1 14:05:55 10° S 14:07:36 15° SSE 14:07:36 15° SSE visible
18 Feb 10.1 22:27:49 31° N 22:31:29 39° NNE 22:43:36 10° E visible
19 Feb 9.8 00:26:12 10° NW 00:37:43 84° SW 00:52:46 10° SE visible
19 Feb 9.1 13:32:15 10° SSE 13:34:03 12° SE 13:35:01 11° SE visible
19 Feb 10.2 21:55:02 33° NNE 21:55:57 33° NNE 22:06:50 10° E visible
